Simultaneous Nadir Overpasses (SNOs) Predictions

Prediction of SNOs between GOES-15 and METOP-B Satellite Orbit:

Table of predicted SNOs for the next 14.0 days since TLE Epoch: 2/2/2017
Index Date Time (GOES-15) GOES-15 Lat,Lon METOP-B Lat,Lon Distance(km) Time Diff (sec)
1 02/04/2017 06:52:10 -0.03,-135.40 -0.96,-139.64 482.74 80
2 02/05/2017 06:28:51 -0.02,-135.41 0.14,-134.64 87.04 80
3 02/06/2017 18:50:23 0.03,-135.38 0.88,-139.20 435.26 80
4 02/07/2017 18:27:03 0.03,-135.39 -0.21,-134.21 134.23 80
5 02/09/2017 06:48:44 -0.03,-135.43 -0.81,-138.80 385.37 80
6 02/10/2017 06:25:25 -0.03,-135.43 0.34,-133.82 183.99 80
7 02/11/2017 18:46:57 0.04,-135.40 0.68,-138.38 338.97 80
8 02/12/2017 18:23:38 0.03,-135.40 -0.42,-133.38 230.24 80
9 02/14/2017 06:45:18 -0.04,-135.44 -0.60,-137.98 289.90 80
10 02/15/2017 06:21:59 -0.03,-135.44 0.49,-132.98 279.10 80
11 02/16/2017 18:43:31 0.03,-135.40 0.53,-137.55 244.60 80




NCC Satellite Simultaneous Nadir Overpasses (SNOs) Prediction Service
